Location: Ford County Road and Bridge Department
(37.7686°N, 99.9762°W)
Time: 01:52:28
(UTC+00:00)

Cosmos 2218 Rocket - Pass Details

Date: 18 January 2020
Orbit: 956 x 1006 km, 82.9° (Epoch: 19 February)

Event Time Altitude Azimuth Distance (km) Brightness Sun altitude
Rises 01:13:48 0° 168° (SSE) 3,667 7.0 -17.0°
Reaches altitude 10° 01:16:22 10° 163° (SSE) 2,730 6.3 -17.5°
Maximum altitude 01:22:21 49° 90° (E) 1,264 4.2 -18.7°
Drops below altitude 10° 01:28:26 10° 18° (NNE) 2,776 6.1 -19.9°
Sets 01:31:03 0° 13° (NNE) 3,734 6.8 -20.4°
